Home > Weather > Centennial > Past weeks

Flag for U.S.A. Weather for the Past 2 Weeks in Centennial, Colorado, U.S.A.

Now
50 °F

Passing clouds.


Feels Like: 49 °F
Forecast: 35 / 53 °F
Wind: 3 mph from North

Location: Centennial Airport

Current Time: Feb 13, 2016 at 10:10:40 PM

Latest Report: Feb 13, 2016 at 8:53 PM


Visibility: 10 mi

Pressure: 29.93 "Hg (24.14 "Hg at 1781m altitude)

Humidity: 18%

Dew point: 8 °F

Location of CentennialLocation

Historic Weather in Centennial — Graph

°F

Centennial Temperature Yesterday

Maximum temperature yesterday: 59 °F (at 1:53 PM)
Minimum temperature yesterday: 33 °F (at 6:53 AM)
Average temperature yesterday: 44 °F

High & Low Weather Summary for the Past Weeks

 TemperatureHumidityPressure
High65 °F (Feb 13, 12:53 PM)96% (Jan 30, 11:53 PM)30.53 "Hg (Jan 30, 11:53 PM)
Low2 °F (Feb 3, 5:53 AM)10% (Feb 13, 3:53 PM)29.37 "Hg (Jan 30, 1:53 PM)
Average33 °F55%30.12 "Hg
* Reported Jan 29 8:53 PM — Feb 13 8:53 PM, Centennial, Weather by CustomWeather, © 2016

Note: Actual official high and low records may vary slightly from our data, if they occured in-between our weather recording intervals... More about our weather records

Advertising

Centennial Weather History for the Previous 24 Hours

 ConditionsComfort  
Time TempWeatherWind HumidityBarometerVisibility
8:53 PM
Sat, Feb 13
50 °FPassing clouds.3 mph18%29.93 "Hg10 mi
7:53 PM46 °FPassing clouds.8 mph29%29.93 "Hg10 mi
6:53 PM50 °FPartly cloudy.15 mph24%29.90 "Hg10 mi
5:53 PM55 °FPartly cloudy.13 mph16%29.94 "Hg10 mi
4:53 PM59 °FPartly sunny.21 mph14%29.93 "Hg10 mi
3:53 PM63 °FBroken clouds.17 mph10%29.89 "Hg10 mi
2:53 PM63 °FBroken clouds.16 mph16%29.88 "Hg10 mi
1:53 PM64 °FBroken clouds.9 mph18%29.87 "Hg10 mi
12:53 PM65 °FBroken clouds.10 mph15%29.89 "Hg10 mi
11:53 AM64 °FPartly sunny.5 mph17%29.91 "Hg10 mi
10:53 AM59 °FPartly sunny.5 mph25%29.96 "Hg10 mi
9:53 AM52 °FPartly sunny.3 mph38%30.01 "Hg10 mi
8:53 AM46 °FPartly sunny.7 mph46%30.05 "Hg10 mi
7:53 AM42 °FPartly sunny.6 mph51%30.07 "Hg10 mi
6:53 AM43 °FPartly cloudy.3 mph45%30.05 "Hg10 mi
5:53 AM36 °FPartly cloudy.No wind70%30.08 "Hg10 mi
4:53 AM33 °FPassing clouds.No wind85%30.08 "Hg10 mi
3:53 AM35 °FPassing clouds.No wind82%30.07 "Hg10 mi
2:53 AM34 °FPassing clouds.3 mph82%30.09 "Hg10 mi
1:53 AM35 °FPartly cloudy.No wind82%30.11 "Hg10 mi
12:53 AM34 °FPartly cloudy.No wind88%30.14 "Hg10 mi
11:53 PM
Fri, Feb 12
37 °FPartly cloudy.No wind79%30.14 "Hg10 mi
10:53 PM39 °FPartly cloudy.No wind76%30.18 "Hg10 mi
Weather by CustomWeather, © 2016

See weather overviewHow to use our weather pages